QPF
0.04 0.05 0.04 0.03 0.05 0.06 0.05 0.04 0.04 0.05 0.03 0.01 0.02 0.02 0.02 0.02 0.03 0.02 0.02 0.02 0.02 0.01 0.01 0.01 0.01 0.02 0.03 0.02 0.02 0.02 0.02 0.03 0.03 0.04 0.05 0.05 0.04 0.04 0.04 0.04 0.03 0.04 0.05 0.05
0.04 0.04 0.03 0.02 0.04 0.08 0.07 0.06 0.05 0.06 0.04 0.02 0.02 0.02 0.02 0.03 0.03 0.03 0.03 0.03 0.02 0.02 0.02 0.02 0.02 0.02 0.04 0.03 0.02 0.01 0.02 0.02 0.02 0.02 0.03 0.04 0.04 0.05 0.05 0.04 0.04 0.03 0.03 0.03
0.02 0.03 0.03 0.03 0.04 0.07 0.08 0.07 0.06 0.07 0.06 0.04 0.03 0.03 0.02 0.02 0.02 0.03 0.03 0.03 0.03 0.03 0.02 0.03 0.03 0.03 0.03 0.05 0.04 0.03 0.03 0.03 0.03 0.03 0.03 0.03 0.04 0.04 0.04 0.04 0.04 0.04 0.03 0.03
0.01 0.02 0.02 0.03 0.04 0.05 0.08 0.05 0.06 0.07 0.07 0.06 0.04 0.06 0.03 0.01 0.02 0.03 0.03 0.03 0.04 0.04 0.03 0.03 0.03 0.03 0.04 0.04 0.04 0.04 0.04 0.03 0.03 0.04 0.04 0.04 0.04 0.03 0.03 0.02 0.02 0.03 0.03 0.02
0.02 0.01 0.01 0.02 0.04 0.05 0.07 0.07 0.06 0.07 0.08 0.08 0.05 0.05 0.04 0.02 0.01 0.03 0.04 0.03 0.03 0.04 0.04 0.03 0.03 0.03 0.04 0.04 0.04 0.04 0.04 0.04 0.04 0.04 0.05 0.05 0.05 0.05 0.03 0.02 0.02 0.02 0.02 0.02
0.02 0.01 0.01 0.02 0.03 0.05 0.06 0.07 0.08 0.09 0.09 0.11 0.07 0.06 0.05 0.03 0.02 0.01 0.04 0.04 0.04 0.04 0.04 0.04 0.03 0.03 0.03 0.04 0.05 0.05 0.05 0.06 0.05 0.04 0.04 0.05 0.05 0.04 0.03 0.03 0.02 0.02 0.02 0.02
0.02 0.01 0.02 0.02 0.03 0.04 0.05 0.07 0.10 0.11 0.11 0.09 0.06 0.06 0.06 0.04 0.03 0.02 0.02 0.04 0.04 0.05 0.05 0.05 0.05 0.04 0.05 0.04 0.05 0.05 0.05 0.05 0.05 0.04 0.04 0.04 0.04 0.04 0.04 0.05 0.05 0.05 0.04 0.03
0.01 0.02 0.03 0.02 0.03 0.04 0.04 0.05 0.06 0.06 0.05 0.05 0.04 0.06 0.05 0.04 0.03 0.02 0.02 0.03 0.03 0.05 0.08 0.08 0.07 0.07 0.06 0.05 0.05 0.04 0.04 0.04 0.04 0.04 0.03 0.03 0.04 0.05 0.06 0.07 0.08 0.07 0.06 0.05
0.01 0.01 0.02 0.02 0.02 0.03 0.04 0.04 0.03 0.04 0.03 0.03 0.04 0.04 0.03 0.03 0.03 0.02 0.02 0.03 0.03 0.04 0.06 0.08 0.09 0.08 0.08 0.08 0.07 0.07 0.06 0.06 0.05 0.05 0.05 0.05 0.05 0.06 0.06 0.06 0.06 0.06 0.06 0.05
0.02 0.02 0.01 0.02 0.03 0.04 0.04 0.03 0.03 0.04 0.03 0.02 0.03 0.02 0.02 0.02 0.03 0.03 0.03 0.03 0.03 0.03 0.03 0.04 0.05 0.06 0.07 0.07 0.07 0.07 0.07 0.07 0.07 0.06 0.06 0.06 0.05 0.05 0.05 0.06 0.07 0.05 0.04 0.05
0.03 0.02 0.01 0.02 0.04 0.04 0.03 0.03 0.04 0.03 0.02 0.01 0.01 0.01 0.01 0.01 0.02 0.03 0.03 0.03 0.02 0.02 0.02 0.02 0.03 0.04 0.04 0.04 0.05 0.05 0.06 0.06 0.06 0.05 0.05 0.04 0.04 0.04 0.03 0.04 0.04 0.03 0.04 0.04
0.02 0.02 0.01 0.01 0.01 0.01 0.01 0.02 0.03 0.02 0.01 0.01 0.00 0.01 0.01 0.01 0.02 0.02 0.03 0.03 0.02 0.02 0.02 0.02 0.02 0.02 0.03 0.03 0.03 0.03 0.03 0.03 0.03 0.02 0.02 0.01 0.01 0.02 0.02 0.02 0.02 0.02 0.03 0.03
0.02 0.01 0.01 0.01 0.01 0.01 0.01 0.01 0.01 0.02 0.01 0.01 0.00 0.01 0.01 0.01 0.01 0.02 0.02 0.02 0.02 0.02 0.02 0.02 0.02 0.02 0.02 0.02 0.02 0.02 0.02 0.02 0.02 0.02 0.01 0.01 0.01 0.01 0.01 0.01 0.01 0.01 0.02 0.02
0.02 0.01 0.00 0.00 0.01 0.00 0.00 0.00 0.01 0.01 0.01 0.01 0.01 0.00 0.01 0.01 0.01 0.01 0.01 0.02 0.02 0.02 0.03 0.03 0.02 0.02 0.01 0.01 0.01 0.01 0.01 0.01 0.02 0.02 0.02 0.02 0.02 0.02 0.02 0.01 0.01 0.01 0.02 0.02
0.00 0.00 0.00 0.00 0.00 0.00 0.00 0.00 0.00 0.00 0.01 0.01 0.01 0.00 0.01 0.01 0.01 0.01 0.01 0.01 0.01 0.02 0.02 0.02 0.02 0.02 0.02 0.02 0.01 0.01 0.01 0.01 0.02 0.02 0.02 0.02 0.02 0.02 0.02 0.02 0.02 0.02 0.02 0.02
0.00 0.00 0.00 0.00 0.00 0.00 0.00 0.00 0.00 0.00 0.00 0.00 0.00 0.01 0.01 0.00 0.00 0.01 0.01 0.01 0.01 0.01 0.01 0.01 0.01 0.02 0.02 0.02 0.02 0.02 0.02 0.02 0.02 0.02 0.02 0.02 0.02 0.02 0.02 0.02 0.02 0.02 0.02 0.02
0.00 0.00 0.00 0.00 0.00 0.00 0.00 0.00 0.00 0.00 0.00 0.00 0.00 0.00 0.00 0.00 0.00 0.00 0.00 0.01 0.01 0.01 0.01 0.01 0.01 0.01 0.01 0.02 0.02 0.01 0.02 0.02 0.02 0.02 0.03 0.03 0.02 0.02 0.02 0.02 0.02 0.02 0.02 0.01
0.00 0.00 0.00 0.00 0.00 0.00 0.00 0.00 0.01 0.00 0.00 0.00 0.00 0.00 0.00 0.00 0.00 0.00 0.00 0.00 0.00 0.01 0.01 0.01 0.01 0.01 0.02 0.02 0.02 0.02 0.02 0.02 0.02 0.03 0.03 0.03 0.02 0.02 0.02 0.02 0.03 0.02 0.02 0.01
0.00 0.00 0.00 0.00 0.00 0.00 0.00 0.00 0.01 0.00 0.00 0.00 0.00 0.00 0.00 0.00 0.00 0.00 0.00 0.00 0.00 0.00 0.01 0.01 0.01 0.01 0.01 0.01 0.02 0.02 0.02 0.02 0.02 0.02 0.02 0.02 0.02 0.02 0.02 0.02 0.02 0.02 0.01 0.01
0.00 0.00 0.00 0.00 0.00 0.01 0.00 0.00 0.00 0.00 0.00 0.00 0.00 0.00 0.00 0.00 0.00 0.00 0.00 0.00 0.00 0.00 0.00 0.01 0.01 0.01 0.01 0.01 0.01 0.02 0.02 0.02 0.01 0.02 0.02 0.02 0.01 0.01 0.01 0.01 0.01 0.01 0.01 0.01
0.00 0.00 0.00 0.00 0.00 0.01 0.00 0.00 0.00 0.00 0.00 0.00 0.00 0.00 0.00 0.00 0.00 0.00 0.00 0.00 0.00 0.00 0.00 0.00 0.01 0.01 0.01 0.01 0.01 0.02 0.02 0.02 0.02 0.01 0.01 0.01 0.01 0.01 0.01 0.01 0.01 0.01 0.01 0.01
0.00 0.00 0.00 0.00 0.00 0.00 0.00 0.00 0.00 0.00 0.00 0.00 0.00 0.00 0.00 0.00 0.00 0.00 0.00 0.00 0.00 0.00 0.00 0.00 0.00 0.01 0.01 0.01 0.01 0.01 0.02 0.02 0.01 0.01 0.01 0.01 0.01 0.01 0.01 0.01 0.01 0.01 0.01 0.01
0.00 0.00 0.00 0.00 0.00 0.00 0.00 0.00 0.00 0.00 0.00 0.00 0.00 0.00 0.00 0.00 0.00 0.00 0.00 0.00 0.00 0.00 0.00 0.00 0.00 0.00 0.00 0.01 0.01 0.01 0.01 0.01 0.01 0.01 0.01 0.01 0.01 0.01 0.01 0.01 0.01 0.01 0.01 0.01
0.00 0.00 0.00 0.00 0.00 0.00 0.00 0.00 0.00 0.00 0.00 0.00 0.00 0.00 0.00 0.00 0.00 0.00 0.00 0.00 0.00 0.00 0.00 0.00 0.00 0.00 0.00 0.00 0.00 0.01 0.00 0.00 0.00 0.01 0.01 0.01 0.01 0.01 0.01 0.01 0.01 0.01 0.01 0.01
0.00 0.00 0.00 0.00 0.00 0.00 0.00 0.00 0.00 0.00 0.00 0.00 0.00 0.00 0.00 0.00 0.00 0.00 0.00 0.00 0.00 0.00 0.00 0.00 0.00 0.00 0.01 0.01 0.00 0.00 0.00 0.00 0.00 0.00 0.00 0.00 0.00 0.01 0.01 0.01 0.01 0.01 0.01 0.01
0.00 0.00 0.00 0.00 0.00 0.00 0.00 0.00 0.00 0.00 0.00 0.00 0.00 0.00 0.00 0.00 0.00 0.00 0.00 0.00 0.00 0.00 0.00 0.00 0.00 0.00 0.00 0.00 0.00 0.00 0.00 0.00 0.00 0.00 0.00 0.00 0.00 0.00 0.01 0.01 0.01 0.01 0.01 0.01
MSLP
1024.97 1024.95 1024.93 1024.93 1024.91 1024.87 1024.76 1024.52 1024.12 1023.50 1022.68 1021.66 1020.52 1019.35 1018.26 1017.35 1016.71 1016.38 1016.34 1016.54 1016.88 1017.28 1017.63 1017.86 1017.96 1017.95 1017.91 1017.92 1018.07 1018.45 1019.08 1019.96 1021.01 1022.15 1023.28 1024.29 1025.11 1025.69 1026.04 1026.20 1026.24 1026.22 1026.21 1026.25
1025.92 1025.78 1025.64 1025.50 1025.39 1025.27 1025.14 1024.92 1024.56 1024.03 1023.29 1022.36 1021.30 1020.20 1019.16 1018.32 1017.75 1017.49 1017.53 1017.81 1018.23 1018.67 1019.02 1019.20 1019.19 1019.03 1018.81 1018.62 1018.60 1018.83 1019.39 1020.25 1021.35 1022.59 1023.85 1024.99 1025.93 1026.59 1026.99 1027.16 1027.16 1027.10 1027.03 1027.02
1026.93 1026.66 1026.37 1026.11 1025.89 1025.73 1025.58 1025.40 1025.12 1024.67 1024.04 1023.21 1022.24 1021.20 1020.23 1019.43 1018.91 1018.71 1018.82 1019.18 1019.67 1020.17 1020.54 1020.71 1020.63 1020.36 1019.97 1019.62 1019.42 1019.50 1019.95 1020.75 1021.84 1023.12 1024.44 1025.66 1026.68 1027.41 1027.84 1028.02 1028.01 1027.92 1027.81 1027.76
1027.96 1027.57 1027.16 1026.79 1026.50 1026.30 1026.17 1026.05 1025.86 1025.53 1025.01 1024.28 1023.38 1022.41 1021.46 1020.69 1020.19 1020.02 1020.17 1020.57 1021.12 1021.68 1022.09 1022.26 1022.17 1021.83 1021.34 1020.85 1020.51 1020.45 1020.76 1021.46 1022.49 1023.73 1025.05 1026.29 1027.34 1028.10 1028.56 1028.75 1028.75 1028.64 1028.53 1028.46
1028.97 1028.48 1027.97 1027.53 1027.20 1027.01 1026.92 1026.89 1026.81 1026.60 1026.19 1025.56 1024.73 1023.79 1022.86 1022.07 1021.55 1021.36 1021.51 1021.92 1022.50 1023.10 1023.55 1023.76 1023.68 1023.33 1022.80 1022.24 1021.79 1021.61 1021.79 1022.36 1023.28 1024.43 1025.69 1026.89 1027.92 1028.68 1029.15 1029.35 1029.37 1029.28 1029.18 1029.13
1029.90 1029.33 1028.77 1028.29 1027.95 1027.79 1027.78 1027.84 1027.88 1027.79 1027.49 1026.95 1026.18 1025.27 1024.34 1023.52 1022.95 1022.70 1022.80 1023.19 1023.76 1024.36 1024.86 1025.11 1025.08 1024.76 1024.25 1023.67 1023.17 1022.90 1022.97 1023.42 1024.20 1025.22 1026.36 1027.48 1028.44 1029.17 1029.64 1029.86 1029.91 1029.86 1029.80 1029.79
1030.67 1030.06 1029.46 1028.98 1028.66 1028.54 1028.60 1028.75 1028.90 1028.92 1028.74 1028.29 1027.59 1026.72 1025.79 1024.94 1024.32 1024.00 1024.01 1024.33 1024.86 1025.45 1025.95 1026.25 1026.28 1026.04 1025.59 1025.04 1024.55 1024.24 1024.24 1024.57 1025.21 1026.09 1027.09 1028.08 1028.96 1029.64 1030.08 1030.32 1030.40 1030.41 1030.40 1030.44
1031.24 1030.61 1030.00 1029.51 1029.21 1029.13 1029.23 1029.45 1029.68 1029.81 1029.73 1029.38 1028.78 1027.97 1027.08 1026.23 1025.57 1025.18 1025.12 1025.35 1025.79 1026.34 1026.83 1027.16 1027.25 1027.10 1026.74 1026.28 1025.84 1025.55 1025.50 1025.75 1026.28 1027.01 1027.87 1028.73 1029.51 1030.11 1030.53 1030.78 1030.89 1030.95 1030.99 1031.08
1031.58 1030.94 1030.33 1029.83 1029.53 1029.44 1029.55 1029.79 1030.07 1030.26 1030.27 1030.04 1029.56 1028.87 1028.07 1027.28 1026.62 1026.21 1026.08 1026.22 1026.58 1027.05 1027.51 1027.84 1027.99 1027.92 1027.67 1027.32 1026.98 1026.74 1026.70 1026.91 1027.35 1027.97 1028.69 1029.43 1030.09 1030.63 1031.01 1031.25 1031.39 1031.48 1031.57 1031.69
1031.73 1031.09 1030.47 1029.94 1029.59 1029.45 1029.50 1029.70 1029.97 1030.19 1030.27 1030.16 1029.82 1029.30 1028.65 1027.99 1027.42 1027.03 1026.87 1026.95 1027.23 1027.61 1028.01 1028.33 1028.51 1028.52 1028.38 1028.16 1027.93 1027.78 1027.78 1027.98 1028.37 1028.90 1029.51 1030.14 1030.71 1031.17 1031.51 1031.74 1031.89 1032.00 1032.12 1032.25
1031.74 1031.11 1030.47 1029.90 1029.46 1029.20 1029.13 1029.21 1029.39 1029.58 1029.71 1029.70 1029.54 1029.21 1028.78 1028.31 1027.90 1027.60 1027.47 1027.53 1027.74 1028.05 1028.38 1028.67 1028.85 1028.92 1028.88 1028.78 1028.67 1028.63 1028.70 1028.93 1029.29 1029.76 1030.29 1030.83 1031.31 1031.71 1032.01 1032.22 1032.36 1032.48 1032.59 1032.71
1031.71 1031.12 1030.47 1029.83 1029.26 1028.83 1028.56 1028.46 1028.49 1028.60 1028.72 1028.80 1028.79 1028.69 1028.51 1028.29 1028.08 1027.93 1027.88 1027.95 1028.12 1028.37 1028.64 1028.88 1029.06 1029.17 1029.22 1029.22 1029.24 1029.30 1029.46 1029.71 1030.07 1030.51 1030.98 1031.44 1031.85 1032.19 1032.45 1032.64 1032.78 1032.88 1032.97 1033.07
1031.75 1031.22 1030.57 1029.85 1029.14 1028.50 1027.98 1027.63 1027.45 1027.42 1027.49 1027.62 1027.75 1027.86 1027.94 1027.97 1028.00 1028.03 1028.10 1028.21 1028.37 1028.57 1028.79 1028.99 1029.17 1029.31 1029.42 1029.53 1029.65 1029.81 1030.04 1030.34 1030.70 1031.11 1031.53 1031.93 1032.29 1032.59 1032.81 1032.98 1033.10 1033.19 1033.26 1033.32
1031.94 1031.49 1030.85 1030.06 1029.19 1028.32 1027.54 1026.92 1026.49 1026.27 1026.25 1026.38 1026.61 1026.89 1027.19 1027.47 1027.72 1027.93 1028.12 1028.30 1028.48 1028.65 1028.83 1029.00 1029.18 1029.35 1029.53 1029.72 1029.93 1030.18 1030.48 1030.81 1031.18 1031.57 1031.94 1032.29 1032.60 1032.86 1033.06 1033.22 1033.33 1033.41 1033.46 1033.50
1032.28 1031.94 1031.33 1030.48 1029.46 1028.38 1027.33 1026.43 1025.75 1025.33 1025.17 1025.26 1025.53 1025.94 1026.41 1026.88 1027.31 1027.68 1027.98 1028.22 1028.42 1028.59 1028.75 1028.91 1029.10 1029.31 1029.55 1029.82 1030.12 1030.45 1030.80 1031.16 1031.52 1031.88 1032.21 1032.52 1032.79 1033.02 1033.20 1033.35 1033.47 1033.55 1033.60 1033.62
1032.76 1032.51 1031.93 1031.03 1029.89 1028.62 1027.34 1026.19 1025.27 1024.65 1024.36 1024.38 1024.65 1025.12 1025.69 1026.29 1026.84 1027.32 1027.70 1027.99 1028.21 1028.38 1028.54 1028.71 1028.93 1029.19 1029.50 1029.85 1030.23 1030.62 1031.01 1031.39 1031.74 1032.07 1032.36 1032.62 1032.86 1033.06 1033.25 1033.40 1033.54 1033.64 1033.70 1033.72
1033.26 1033.08 1032.51 1031.57 1030.33 1028.92 1027.46 1026.12 1025.02 1024.24 1023.82 1023.76 1024.01 1024.49 1025.10 1025.76 1026.37 1026.90 1027.32 1027.62 1027.85 1028.02 1028.19 1028.40 1028.66 1028.99 1029.38 1029.81 1030.26 1030.71 1031.14 1031.52 1031.86 1032.15 1032.40 1032.62 1032.82 1033.02 1033.20 1033.38 1033.54 1033.67 1033.76 1033.79
1033.66 1033.48 1032.89 1031.90 1030.59 1029.08 1027.52 1026.07 1024.86 1023.98 1023.49 1023.37 1023.59 1024.05 1024.66 1025.31 1025.93 1026.45 1026.86 1027.16 1027.37 1027.55 1027.74 1027.98 1028.30 1028.70 1029.17 1029.69 1030.21 1030.72 1031.17 1031.55 1031.87 1032.13 1032.33 1032.52 1032.69 1032.88 1033.08 1033.28 1033.47 1033.64 1033.76 1033.82
1033.81 1033.57 1032.91 1031.86 1030.49 1028.94 1027.35 1025.87 1024.64 1023.74 1023.24 1023.11 1023.30 1023.74 1024.33 1024.95 1025.53 1026.01 1026.37 1026.64 1026.83 1027.00 1027.21 1027.49 1027.87 1028.34 1028.89 1029.47 1030.06 1030.61 1031.08 1031.47 1031.76 1031.99 1032.16 1032.31 1032.47 1032.65 1032.85 1033.08 1033.31 1033.51 1033.66 1033.74
1033.61 1033.23 1032.46 1031.34 1029.94 1028.39 1026.83 1025.40 1024.24 1023.41 1022.95 1022.86 1023.08 1023.51 1024.07 1024.65 1025.17 1025.59 1025.90 1026.11 1026.27 1026.44 1026.65 1026.96 1027.38 1027.91 1028.52 1029.16 1029.79 1030.37 1030.86 1031.23 1031.51 1031.71 1031.85 1031.98 1032.12 1032.30 1032.52 1032.76 1033.01 1033.24 1033.41 1033.50
1033.03 1032.46 1031.54 1030.34 1028.93 1027.42 1025.95 1024.65 1023.62 1022.93 1022.59 1022.58 1022.85 1023.30 1023.85 1024.39 1024.86 1025.22 1025.47 1025.63 1025.76 1025.90 1026.11 1026.44 1026.88 1027.44 1028.08 1028.75 1029.40 1029.99 1030.47 1030.84 1031.10 1031.28 1031.41 1031.52 1031.65 1031.82 1032.04 1032.29 1032.55 1032.79 1032.97 1033.06
1032.09 1031.30 1030.24 1028.96 1027.56 1026.14 1024.82 1023.69 1022.85 1022.34 1022.16 1022.27 1022.62 1023.11 1023.66 1024.17 1024.60 1024.91 1025.11 1025.23 1025.32 1025.45 1025.65 1025.97 1026.41 1026.96 1027.59 1028.25 1028.89 1029.46 1029.93 1030.28 1030.53 1030.69 1030.81 1030.92 1031.05 1031.22 1031.44 1031.69 1031.94 1032.17 1032.33 1032.41
1030.86 1029.87 1028.69 1027.39 1026.04 1024.74 1023.59 1022.67 1022.05 1021.74 1021.73 1021.98 1022.41 1022.95 1023.50 1024.00 1024.40 1024.67 1024.84 1024.94 1025.01 1025.11 1025.29 1025.58 1026.00 1026.51 1027.10 1027.71 1028.30 1028.83 1029.25 1029.58 1029.81 1029.97 1030.09 1030.21 1030.34 1030.52 1030.73 1030.97 1031.20 1031.40 1031.54 1031.58
1029.45 1028.32 1027.08 1025.79 1024.54 1023.41 1022.47 1021.77 1021.37 1021.26 1021.41 1021.78 1022.28 1022.85 1023.41 1023.90 1024.27 1024.53 1024.68 1024.76 1024.82 1024.91 1025.06 1025.32 1025.68 1026.13 1026.63 1027.16 1027.67 1028.13 1028.50 1028.79 1029.01 1029.17 1029.30 1029.44 1029.59 1029.77 1029.98 1030.20 1030.40 1030.56 1030.65 1030.65
1027.96 1026.76 1025.54 1024.35 1023.26 1022.33 1021.61 1021.16 1020.96 1021.02 1021.30 1021.75 1022.29 1022.86 1023.41 1023.87 1024.23 1024.47 1024.62 1024.70 1024.76 1024.84 1024.97 1025.18 1025.47 1025.83 1026.24 1026.66 1027.06 1027.43 1027.73 1027.98 1028.19 1028.36 1028.51 1028.67 1028.86 1029.05 1029.26 1029.46 1029.63 1029.73 1029.76 1029.70
1026.43 1025.27 1024.16 1023.14 1022.27 1021.59 1021.12 1020.89 1020.89 1021.08 1021.45 1021.92 1022.46 1023.00 1023.51 1023.93 1024.26 1024.49 1024.64 1024.73 1024.81 1024.89 1025.00 1025.16 1025.38 1025.64 1025.93 1026.23 1026.51 1026.78 1027.02 1027.23 1027.42 1027.60 1027.79 1027.99 1028.21 1028.43 1028.65 1028.83 1028.95 1029.00 1028.97 1028.84
Thickness
5503 5501 5497 5500 5509 5515 5515 5514 5513 5516 5521 5524 5526 5527 5531 5533 5534 5535 5536 5537 5539 5541 5543 5545 5548 5551 5553 5556 5558 5560 5561 5563 5563 5564 5564 5563 5562 5561 5561 5561 5561 5561 5561 5561
5493 5486 5488 5497 5504 5507 5508 5507 5504 5507 5513 5517 5517 5519 5523 5526 5527 5528 5529 5529 5530 5532 5534 5536 5538 5540 5541 5543 5546 5549 5550 5552 5553 5553 5553 5552 5551 5551 5550 5549 5550 5550 5550 5549
5478 5476 5486 5494 5495 5500 5498 5498 5498 5501 5503 5507 5511 5513 5517 5519 5519 5519 5520 5520 5520 5522 5523 5525 5526 5528 5530 5532 5534 5536 5539 5540 5542 5542 5542 5541 5541 5540 5539 5538 5538 5538 5538 5537
5470 5473 5482 5485 5484 5491 5493 5494 5495 5497 5498 5496 5503 5503 5511 5511 5511 5512 5510 5509 5508 5510 5511 5513 5514 5516 5518 5520 5522 5524 5526 5528 5529 5531 5532 5531 5530 5528 5526 5526 5526 5526 5526 5526
5465 5468 5474 5476 5477 5482 5483 5487 5489 5491 5492 5490 5491 5493 5501 5502 5506 5506 5504 5502 5500 5500 5500 5502 5504 5506 5507 5509 5510 5513 5514 5515 5517 5519 5520 5519 5518 5516 5515 5515 5515 5515 5514 5513
5464 5466 5466 5469 5474 5478 5480 5483 5484 5480 5481 5480 5488 5486 5491 5490 5500 5502 5499 5495 5493 5492 5491 5491 5493 5495 5496 5497 5499 5501 5502 5503 5504 5505 5506 5506 5506 5505 5505 5504 5504 5503 5502 5501
5465 5466 5464 5467 5474 5475 5477 5472 5461 5464 5456 5465 5478 5479 5483 5491 5492 5493 5492 5489 5486 5484 5483 5483 5483 5484 5485 5486 5487 5488 5489 5490 5491 5492 5493 5492 5492 5492 5492 5492 5492 5491 5490 5489
5456 5457 5459 5461 5465 5468 5469 5470 5463 5466 5463 5463 5469 5471 5481 5484 5483 5484 5483 5481 5478 5476 5475 5474 5474 5473 5472 5473 5474 5475 5477 5478 5479 5479 5480 5480 5480 5480 5480 5480 5479 5478 5477 5477
5445 5451 5457 5459 5461 5466 5466 5461 5463 5451 5444 5447 5456 5461 5471 5477 5477 5476 5475 5473 5470 5468 5467 5465 5464 5463 5462 5462 5462 5463 5464 5465 5465 5466 5467 5467 5467 5467 5468 5468 5467 5466 5465 5464
5440 5443 5452 5454 5462 5460 5462 5457 5449 5443 5447 5451 5453 5455 5466 5475 5473 5470 5467 5464 5462 5461 5460 5457 5455 5454 5453 5452 5452 5452 5452 5453 5453 5454 5454 5455 5454 5454 5455 5455 5455 5454 5453 5452
5440 5442 5447 5449 5447 5450 5454 5452 5445 5435 5437 5445 5449 5462 5465 5468 5468 5463 5460 5458 5455 5454 5452 5450 5447 5446 5445 5444 5443 5443 5443 5443 5443 5443 5443 5443 5444 5444 5444 5443 5443 5443 5442 5441
5438 5434 5435 5441 5444 5444 5446 5447 5443 5443 5434 5433 5440 5454 5468 5462 5459 5457 5454 5452 5450 5447 5445 5442 5440 5438 5437 5435 5435 5434 5433 5432 5432 5432 5432 5433 5433 5433 5433 5432 5431 5431 5430 5429
5439 5433 5436 5445 5442 5439 5440 5441 5437 5432 5425 5419 5427 5453 5461 5456 5455 5453 5449 5446 5443 5441 5439 5436 5433 5431 5429 5427 5426 5426 5424 5423 5422 5422 5422 5422 5422 5422 5422 5421 5420 5419 5418 5417
5439 5425 5433 5446 5444 5432 5433 5436 5434 5432 5424 5418 5428 5447 5458 5456 5452 5449 5445 5442 5438 5435 5433 5430 5427 5424 5423 5420 5419 5417 5415 5414 5413 5413 5412 5412 5412 5412 5411 5411 5409 5408 5406 5405
5435 5423 5417 5419 5420 5421 5425 5430 5431 5429 5431 5432 5441 5440 5456 5455 5449 5446 5443 5439 5436 5433 5430 5428 5424 5420 5417 5414 5412 5410 5408 5406 5404 5403 5402 5402 5402 5402 5400 5399 5398 5396 5394 5392
5426 5418 5414 5416 5417 5417 5420 5428 5429 5430 5429 5429 5434 5441 5454 5448 5443 5440 5438 5435 5432 5430 5428 5424 5420 5417 5413 5410 5407 5404 5401 5399 5396 5395 5393 5392 5392 5391 5390 5389 5387 5384 5382 5380
5417 5411 5413 5417 5406 5420 5424 5437 5433 5433 5435 5436 5438 5450 5451 5446 5443 5440 5437 5434 5431 5428 5424 5420 5417 5412 5409 5405 5402 5398 5396 5393 5390 5388 5386 5384 5383 5382 5381 5379 5376 5374 5371 5369
5414 5402 5389 5391 5409 5436 5455 5447 5440 5439 5440 5438 5444 5447 5446 5443 5439 5436 5434 5431 5428 5425 5421 5417 5413 5409 5404 5401 5397 5394 5390 5386 5383 5380 5378 5376 5374 5373 5371 5368 5366 5363 5361 5357
5418 5406 5383 5383 5397 5413 5445 5446 5439 5437 5445 5447 5441 5444 5440 5436 5433 5433 5435 5430 5426 5423 5419 5414 5409 5405 5400 5396 5392 5388 5384 5380 5376 5373 5370 5368 5365 5363 5361 5359 5356 5353 5350 5346
5409 5402 5383 5377 5407 5429 5466 5452 5442 5443 5448 5455 5444 5441 5436 5433 5432 5437 5435 5429 5424 5419 5414 5409 5404 5399 5394 5390 5386 5381 5377 5373 5369 5366 5363 5360 5357 5355 5352 5350 5347 5343 5339 5335
5400 5389 5383 5377 5390 5419 5449 5444 5442 5446 5465 5463 5446 5442 5435 5431 5438 5436 5429 5424 5420 5415 5410 5405 5399 5394 5389 5385 5380 5375 5371 5367 5363 5359 5355 5352 5349 5346 5344 5340 5337 5333 5329 5324
5410 5397 5385 5376 5392 5435 5450 5439 5444 5461 5462 5456 5448 5442 5436 5433 5430 5427 5423 5419 5415 5409 5405 5399 5394 5389 5384 5379 5374 5370 5365 5362 5357 5352 5348 5345 5341 5338 5335 5331 5327 5322 5318 5314
5418 5427 5420 5424 5450 5462 5450 5453 5457 5454 5453 5451 5446 5441 5436 5430 5425 5422 5418 5414 5410 5405 5400 5395 5389 5384 5378 5372 5368 5364 5360 5355 5350 5345 5341 5337 5333 5329 5325 5321 5317 5313 5308 5303
5420 5421 5421 5421 5444 5450 5448 5448 5449 5448 5447 5447 5443 5438 5432 5428 5424 5418 5414 5411 5406 5401 5395 5390 5383 5378 5373 5367 5362 5358 5354 5348 5343 5338 5334 5330 5325 5321 5317 5312 5308 5303 5299 5295
5432 5418 5417 5423 5443 5445 5451 5451 5452 5449 5445 5441 5438 5433 5429 5425 5420 5416 5411 5407 5402 5398 5391 5384 5378 5374 5369 5362 5357 5352 5347 5342 5337 5332 5327 5322 5318 5313 5308 5304 5299 5295 5291 5286
5433 5433 5435 5455 5461 5455 5465 5462 5455 5448 5444 5440 5435 5430 5426 5421 5418 5414 5408 5403 5397 5392 5385 5379 5373 5369 5363 5357 5352 5346 5341 5336 5331 5326 5321 5315 5310 5305 5300 5296 5291 5287 5284 5280